STARLINK-11317, 61248

Orbit data source: Space-Track

STARLINK-11317, 61248 is a payload satellite owned by SpaceX/Seattle (US) in LEO that was launched on Wed, 25 Sep 2024 UTC via an FALCON 9 launch vehicle from the Air Force Western Test Range (AFWTR). Payload-class satellites include a variety of spacecraft equipped with specific instruments for various scientific and technological missions. These include communications satellites like Starlink; space stations such as the ISS; scientific satellites like the Hubble; Earth observation satellites from companies like Planet Labs, Umbra, and HawkEye 360; GPS; miniature CubeSats for education and research; and military/defense satellites.

Loading next visibility...
Identifier
61248, 2024-175F
Orbit
LEO
Last TLE update
11 hours ago
Origin
Manufacturer
SpaceX/Seattle
Mission
Operational Commercial Communications
Bus & Motor
STARLINK V2M, Unknown motor
Mass
730 kg wet, ~700 kg dry
Launch date (UTC)
2024-09-25 (10 months ago)
Launch vehicle
FALCON 9
Launch site
Air Force Western Test Range (AFWTR)
Object type
Payload
Rocket body
Debris
Shape & HBR
Box + 2 Pan, 14.5 m
Radar Cross Section
36.964 m², Large (>1 m²)

Expand to show TLE details & history

TLE from 11 hours ago
0 STARLINK-11317
1 61248U 24175F   25199.53705994 -.00000679  00000-0 -75034-6 0  9997
2 61248  53.1598 130.2990 0001016  85.8214 274.2920 15.69698159 46593
Epoch: 2025-07-18T12:53Z
TLE epoch observation values (Epoch: 2025-07-18T12:53:21.978Z)
Latitude
-0.00004°
Longitude
0.3703°
Altitude
360.625 km
Speed
7.694 km/s
True Right ascension
08h 41m 11s
True Declination
0° 00' 00"
Sunlit
Object was in daylight at epoch
Visualization orbit readout
Latitude
4.89486°
Longitude
1.82532°
Altitude
360.067 km
Speed
7.695 km/s
Apparent Right ascension
05h 43m 26s
Apparent Declination
-32° 16' 08"
Sunlit
Object is in daylight
Visualization observer readout
Local Sidereal Time
12:24:20
Azimuth
249.376° W
Elevation
-27.24°
Doppler factor
1
Orbital elements
Apogee altitude
360.706 km
Perigee altitude
359.337 km
Semi-major axis
6,738.158 km
Eccentricity
0.0001
Inclination
53.1598°
RAAN
130.299°
Arg. of periapsis
85.8214°
True anomaly
274.28039°
Mean anomaly
274.292°
Eccentric anomaly
274.2862°
Mean motion
3.92402 °/min
Orbital period
91.74 mins
BSTAR
-7.5034e-7
Loading maneuver chart data...
Loading SW <> Apogee altitude chart data...
Loading historical data...
Loading historical data...
Loading historical data...
Loading historical data...
Loading historical data...
Loading historical data...
Loading historical data...
|